Volver al catálogo

CZ-6A DEB

ActivoPO
NORAD 61807·DEBRIS·🇨🇳 China

Lanzado Aug 6, 2024 desde Taiyuan Satellite Launch Center

Loading…

Próximos Pases (próximas 24 horas)

TLE

ActualizadoSource: Space-Track

Época: Sep 13, 2026, 23:34 UTC

1 61807U 24140ABX 26256.98256752  .00000822  00000-0  35251-3 0  9999
2 61807  88.9757 262.4671 0033148 232.4268 127.3912 14.23676124103030

Sigue CZ-6A DEB en tiempo real con AllMySat

Download on the App Store